sat.trackr.live / text

‹ back to catalog

STARLINK-30186

NORAD 57470 · 2023-107P

PAYLOAD ACTIVE UNKNOWN

§ Identity

Operator
Country
US
Launch date
2023-07-28
Launch site
AFETR
Launch vehicle
Mass (kg)
RCS (m²)

Purposes: comms

External: N2YO · Heavens-Above · Gunter

§ Orbital elements

Epoch: 2026-05-25T01:57:55.728000Z

Period
94.26 min
Inclination
43.0012°
Eccentricity
0.0002089
Mean motion
15.27725897 rev/d
Perigee alt
481.2 km
Apogee alt
484.0 km
Semi-major
6,860.7 km
B*
5.5193e-3
RAAN
272.9267°
Arg perigee
270.0223°
Mean anomaly
90.0390°
Rev number
15,673

§ Raw data

STARLINK-301861 57470U 23107P   26145.08189500  .00155549  00000+0  55193-2 0  99982 57470  43.0012 272.9267 0002089 270.0223  90.0390 15.27725897156731

JSON: /api/v1/satellites/57470 · /tle

For live sub-satellite position, see the globe view (requires WebGL).

§ Visibility from observer

Set your observer location to see the next 7 days of passes ≥ 10°. The values pass through the URL so the page stays shareable.

No JS? Fill the form by hand. The geolocation button needs JavaScript.